| time (UTC) | temp F | wind direction | speed MPH | gust MPH | rain 1hr in | rain 24hr in | rain mn in | humidity % | barometer mb |
| 20260506024031 | 49 | 360 | 4.0 | 7.0 | 0.00 | 0.01 | 0.00 | 80 | 1011.4 |
| 20260506023559 | 49 | 350 | 2.0 | 9.0 | 0.00 | 0.01 | 0.00 | 80 | 1011.3 |
| 20260506023507 | 49 | 350 | 2.0 | 9.0 | 0.00 | 0.01 | 0.00 | 80 | 1011.3 |
| 20260506023036 | 49 | 360 | 2.0 | 8.0 | 0.00 | 0.01 | 0.00 | 79 | 1011.1 |
| 20260506022513 | 49 | 53 | 1.0 | 10.0 | 0.00 | 0.01 | 0.00 | 79 | 1010.9 |
| 20260506022038 | 49 | 75 | 3.0 | 10.0 | 0.00 | 0.01 | 0.00 | 79 | 1010.7 |
| 20260506021508 | 49 | 343 | 3.0 | 12.0 | 0.00 | 0.01 | 0.00 | 79 | 1010.6 |
| 20260506021044 | 49 | 70 | 5.0 | 12.0 | 0.00 | 0.01 | 0.00 | 79 | 1010.6 |
| 20260506020505 | 49 | 12 | 3.0 | 10.0 | 0.00 | 0.01 | 0.00 | 79 | 1010.3 |
| 20260506020025 | 49 | 15 | 2.0 | 13.0 | 0.00 | 0.01 | 0.00 | 79 | 1010.4 |
| 20260506015554 | 49 | 30 | 3.0 | 13.0 | 0.00 | 0.01 | 0.00 | 79 | 1010.2 |
| 20260506015033 | 49 | 340 | 3.0 | 9.0 | 0.00 | 0.01 | 0.00 | 79 | 1010.3 |
| 20260506014600 | 49 | 25 | 4.0 | 9.0 | 0.00 | 0.01 | 0.00 | 79 | 1010.3 |
| 20260506014508 | 49 | 6 | 4.0 | 9.0 | 0.00 | 0.01 | 0.00 | 79 | 1010.1 |
| 20260506014034 | 49 | 29 | 4.0 | 8.0 | 0.00 | 0.01 | 0.00 | 79 | 1010.0 |
| 20260506013510 | 49 | 360 | 2.0 | 7.0 | 0.00 | 0.01 | 0.00 | 79 | 1009.7 |
| 20260506013052 | 49 | 350 | 2.0 | 8.0 | 0.00 | 0.01 | 0.00 | 79 | 1009.6 |
| 20260506012510 | 49 | 360 | 4.0 | 8.0 | 0.00 | 0.01 | 0.00 | 79 | 1009.7 |
| 20260506012031 | 49 | 31 | 2.0 | 8.0 | 0.00 | 0.01 | 0.00 | 79 | 1009.7 |
| 20260506011530 | 49 | 24 | 2.0 | 8.0 | 0.00 | 0.01 | 0.00 | 79 | 1009.6 |
| 20260506011050 | 49 | 11 | 3.0 | 9.0 | 0.00 | 0.01 | 0.00 | 79 | 1009.8 |
| 20260506010510 | 49 | 22 | 2.0 | 11.0 | 0.00 | 0.01 | 0.00 | 79 | 1009.5 |
| 20260506010038 | 49 | 29 | 4.0 | 11.0 | 0.00 | 0.01 | 0.00 | 79 | 1009.6 |
| 20260506005519 | 49 | 9 | 4.0 | 7.0 | 0.00 | 0.01 | 0.00 | 79 | 1009.7 |
| 20260506005045 | 49 | 4 | 1.0 | 9.0 | 0.00 | 0.01 | 0.00 | 78 | 1009.5 |
| 20260506004533 | 49 | 10 | 4.0 | 9.0 | 0.00 | 0.01 | 0.00 | 78 | 1009.5 |
| 20260506004056 | 49 | 360 | 4.0 | 13.0 | 0.00 | 0.01 | 0.00 | 78 | 1009.3 |
| 20260506003532 | 50 | 30 | 5.0 | 13.0 | 0.00 | 0.01 | 0.00 | 78 | 1009.4 |
| 20260506003010 | 50 | 4 | 3.0 | 8.0 | 0.00 | 0.01 | 0.00 | 77 | 1009.2 |
| 20260506002548 | 50 | 350 | 3.0 | 8.0 | 0.00 | 0.01 | 0.00 | 77 | 1009.3 |
| 20260506002012 | 50 | 7 | 3.0 | 8.0 | 0.00 | 0.01 | 0.00 | 77 | 1009.0 |
| 20260506001546 | 50 | 54 | 1.0 | 9.0 | 0.00 | 0.01 | 0.00 | 77 | 1009.2 |
| 20260506001008 | 50 | 96 | 3.0 | 13.0 | 0.00 | 0.01 | 0.00 | 77 | 1009.3 |
| 20260506000533 | 50 | 46 | 6.0 | 13.0 | 0.00 | 0.01 | 0.00 | 76 | 1009.2 |
| 20260506000008 | 50 | 360 | 3.0 | 8.0 | 0.00 | 0.01 | 0.00 | 76 | 1009.4 |
| 20260505235532 | 50 | 35 | 5.0 | 8.0 | 0.00 | 0.01 | 0.00 | 76 | 1009.1 |
| 20260505235050 | 50 | 4 | 2.0 | 16.0 | 0.00 | 0.01 | 0.00 | 76 | 1009.2 |
| 20260505234531 | 51 | 360 | 4.0 | 18.0 | 0.00 | 0.01 | 0.00 | 75 | 1009.1 |
| 20260505234053 | 51 | 19 | 2.0 | 14.0 | 0.00 | 0.01 | 0.00 | 75 | 1009.0 |
| 20260505233530 | 51 | 350 | 5.0 | 9.0 | 0.00 | 0.01 | 0.00 | 74 | 1009.2 |
| 20260505233022 | 51 | 43 | 3.0 | 11.0 | 0.00 | 0.01 | 0.00 | 74 | 1008.9 |
| 20260505232548 | 51 | 44 | 3.0 | 11.0 | 0.00 | 0.01 | 0.00 | 74 | 1008.8 |
| 20260505232024 | 51 | 46 | 5.0 | 12.0 | 0.00 | 0.01 | 0.00 | 73 | 1008.7 |
| 20260505231546 | 51 | 6 | 6.0 | 12.0 | 0.00 | 0.01 | 0.00 | 73 | 1009.0 |
| 20260505231007 | 51 | 33 | 4.0 | 11.0 | 0.00 | 0.01 | 0.00 | 72 | 1008.8 |
| 20260505230541 | 51 | 58 | 5.0 | 14.0 | 0.00 | 0.01 | 0.00 | 72 | 1008.6 |
| 20260505230101 | 51 | 8 | 5.0 | 14.0 | 0.00 | 0.01 | 0.00 | 72 | 1008.4 |
| 20260505225524 | 51 | 45 | 4.0 | 12.0 | 0.00 | 0.01 | 0.00 | 73 | 1008.4 |
| 20260505225058 | 51 | 19 | 2.0 | 11.0 | 0.00 | 0.01 | 0.00 | 74 | 1008.1 |
| 20260505224520 | 51 | 57 | 4.0 | 13.0 | 0.00 | 0.01 | 0.00 | 73 | 1008.1 |
| 20260505224049 | 51 | 12 | 4.0 | 13.0 | 0.00 | 0.01 | 0.00 | 73 | 1008.0 |
| 20260505223528 | 52 | 360 | 5.0 | 13.0 | 0.00 | 0.01 | 0.00 | 73 | 1008.1 |
| 20260505223015 | 52 | 42 | 3.0 | 13.0 | 0.00 | 0.01 | 0.00 | 73 | 1007.8 |
| 20260505222528 | 52 | 52 | 4.0 | 10.0 | 0.00 | 0.01 | 0.00 | 73 | 1007.6 |
| 20260505222058 | 52 | 30 | 3.0 | 8.0 | 0.00 | 0.01 | 0.00 | 72 | 1007.6 |
| 20260505221534 | 52 | 37 | 3.0 | 11.0 | 0.00 | 0.01 | 0.00 | 72 | 1007.8 |
| 20260505221011 | 52 | 41 | 4.0 | 19.0 | 0.00 | 0.01 | 0.00 | 72 | 1007.9 |
| 20260505220526 | 52 | 337 | 5.0 | 19.0 | 0.00 | 0.01 | 0.00 | 72 | 1007.9 |
| 20260505220005 | 52 | 360 | 4.0 | 13.0 | 0.00 | 0.01 | 0.00 | 73 | 1007.8 |
| 20260505215526 | 52 | 29 | 3.0 | 13.0 | 0.00 | 0.01 | 0.00 | 73 | 1007.6 |
| 20260505215004 | 52 | 360 | 4.0 | 20.0 | 0.00 | 0.01 | 0.00 | 72 | 1007.7 |
| 20260505214532 | 52 | 39 | 6.0 | 20.0 | 0.00 | 0.01 | 0.00 | 72 | 1007.6 |
| 20260505214103 | 52 | 48 | 3.0 | 15.0 | 0.00 | 0.01 | 0.00 | 72 | 1007.5 |
| 20260505214006 | 52 | 39 | 3.0 | 15.0 | 0.00 | 0.01 | 0.00 | 72 | 1007.5 |
| 20260505213539 | 52 | 35 | 4.0 | 11.0 | 0.00 | 0.01 | 0.00 | 72 | 1007.6 |
| 20260505213023 | 52 | 344 | 5.0 | 12.0 | 0.00 | 0.01 | 0.00 | 72 | 1007.5 |
| 20260505212552 | 52 | 346 | 5.0 | 13.0 | 0.00 | 0.01 | 0.00 | 72 | 1007.3 |
| 20260505212030 | 52 | 355 | 4.0 | 14.0 | 0.00 | 0.01 | 0.00 | 73 | 1007.5 |
| 20260505211508 | 52 | 360 | 5.0 | 19.0 | 0.00 | 0.01 | 0.00 | 73 | 1007.5 |
| 20260505211041 | 53 | 17 | 5.0 | 19.0 | 0.00 | 0.01 | 0.00 | 73 | 1007.3 |
| 20260505210517 | 53 | 25 | 4.0 | 12.0 | 0.00 | 0.01 | 0.00 | 74 | 1007.4 |
| 20260505210055 | 53 | 344 | 4.0 | 10.0 | 0.00 | 0.01 | 0.00 | 74 | 1007.4 |
| 20260505205520 | 53 | 17 | 6.0 | 11.0 | 0.00 | 0.01 | 0.00 | 73 | 1007.4 |
| 20260505205048 | 53 | 343 | 5.0 | 9.0 | 0.00 | 0.01 | 0.00 | 73 | 1007.5 |
| 20260505204530 | 53 | 4 | 5.0 | 9.0 | 0.00 | 0.01 | 0.00 | 74 | 1007.3 |
| 20260505204007 | 53 | 23 | 1.0 | 18.0 | 0.00 | 0.01 | 0.00 | 74 | 1007.2 |
| 20260505203544 | 53 | 23 | 5.0 | 18.0 | 0.00 | 0.01 | 0.00 | 74 | 1007.3 |
| 20260505203021 | 53 | 350 | 5.0 | 11.0 | 0.00 | 0.01 | 0.00 | 74 | 1007.1 |
| 20260505202544 | 53 | 21 | 4.0 | 11.0 | 0.00 | 0.01 | 0.00 | 76 | 1007.1 |
| 20260505202005 | 53 | 325 | 3.0 | 6.0 | 0.00 | 0.01 | 0.00 | 76 | 1007.1 |
| 20260505201548 | 53 | 33 | 1.0 | 10.0 | 0.00 | 0.01 | 0.00 | 77 | 1006.9 |
| 20260505201022 | 53 | 9 | 4.0 | 10.0 | 0.00 | 0.01 | 0.00 | 78 | 1007.0 |
| 20260505200545 | 53 | 355 | 4.0 | 11.0 | 0.00 | 0.01 | 0.00 | 78 | 1007.0 |
| 20260505200020 | 53 | 6 | 4.0 | 12.0 | 0.00 | 0.01 | 0.00 | 78 | 1007.1 |
| 20260505195551 | 53 | 63 | 4.0 | 12.0 | 0.00 | 0.01 | 0.00 | 79 | 1007.2 |
| 20260505195035 | 53 | 360 | 4.0 | 11.0 | 0.00 | 0.01 | 0.00 | 79 | 1007.2 |
| 20260505194519 | 53 | 336 | 4.0 | 15.0 | 0.00 | 0.01 | 0.00 | 79 | 1007.0 |
| 20260505194045 | 53 | 34 | 5.0 | 15.0 | 0.00 | 0.01 | 0.00 | 79 | 1006.9 |
| 20260505193521 | 53 | 8 | 5.0 | 12.0 | 0.00 | 0.01 | 0.00 | 79 | 1006.9 |
| 20260505193054 | 53 | 12 | 5.0 | 12.0 | 0.00 | 0.01 | 0.00 | 79 | 1007.0 |
| 20260505192533 | 53 | 6 | 4.0 | 11.0 | 0.00 | 0.01 | 0.00 | 79 | 1006.8 |
| 20260505192011 | 54 | 331 | 6.0 | 11.0 | 0.00 | 0.01 | 0.00 | 79 | 1006.8 |
| 20260505191542 | 54 | 346 | 4.0 | 11.0 | 0.00 | 0.01 | 0.00 | 79 | 1006.7 |
| 20260505191022 | 54 | 337 | 6.0 | 11.0 | 0.00 | 0.01 | 0.00 | 79 | 1006.7 |
| 20260505190555 | 54 | 360 | 4.0 | 12.0 | 0.00 | 0.01 | 0.00 | 79 | 1006.5 |
| 20260505190039 | 54 | 72 | 5.0 | 12.0 | 0.00 | 0.01 | 0.00 | 79 | 1006.5 |
| 20260505185555 | 54 | 50 | 3.0 | 14.0 | 0.00 | 0.01 | 0.00 | 80 | 1006.4 |
| 20260505185036 | 54 | 350 | 6.0 | 14.0 | 0.00 | 0.01 | 0.00 | 79 | 1006.4 |
| 20260505184512 | 54 | 50 | 4.0 | 13.0 | 0.00 | 0.01 | 0.00 | 80 | 1006.3 |
| 20260505184041 | 54 | 27 | 5.0 | 13.0 | 0.00 | 0.01 | 0.00 | 80 | 1006.4 |
| 20260505183554 | 54 | 4 | 4.0 | 12.0 | 0.00 | 0.01 | 0.00 | 80 | 1006.4 |
| 20260505183046 | 54 | 20 | 5.0 | 9.0 | 0.00 | 0.01 | 0.00 | 81 | 1006.4 |
| 20260505182549 | 54 | 89 | 4.0 | 11.0 | 0.00 | 0.01 | 0.00 | 81 | 1006.5 |
| 20260505182028 | 54 | 355 | 4.0 | 13.0 | 0.00 | 0.01 | 0.00 | 81 | 1006.4 |
| 20260505181557 | 54 | 19 | 4.0 | 13.0 | 0.00 | 0.01 | 0.00 | 82 | 1006.2 |
| 20260505181034 | 54 | 42 | 5.0 | 9.0 | 0.00 | 0.01 | 0.00 | 82 | 1006.0 |
| 20260505180512 | 54 | 6 | 4.0 | 8.0 | 0.00 | 0.01 | 0.00 | 83 | 1006.0 |
| 20260505180043 | 54 | 10 | 3.0 | 10.0 | 0.00 | 0.01 | 0.00 | 83 | 1006.0 |
| 20260505175523 | 54 | 14 | 4.0 | 13.0 | 0.00 | 0.01 | 0.00 | 82 | 1006.1 |
| 20260505175052 | 54 | 336 | 3.0 | 13.0 | 0.00 | 0.01 | 0.00 | 83 | 1005.8 |
| 20260505174530 | 54 | 36 | 5.0 | 12.0 | 0.00 | 0.01 | 0.00 | 83 | 1005.7 |
| 20260505174010 | 54 | 26 | 5.0 | 12.0 | 0.00 | 0.01 | 0.00 | 83 | 1005.8 |
| 20260505173548 | 54 | 339 | 4.0 | 8.0 | 0.00 | 0.01 | 0.00 | 84 | 1005.9 |
| 20260505173011 | 54 | 21 | 3.0 | 8.0 | 0.00 | 0.01 | 0.00 | 84 | 1005.9 |
| 20260505172546 | 54 | 8 | 3.0 | 8.0 | 0.00 | 0.01 | 0.00 | 85 | 1005.7 |
| 20260505172007 | 54 | 6 | 4.0 | 8.0 | 0.00 | 0.01 | 0.00 | 85 | 1005.4 |
| 20260505171530 | 54 | 27 | 3.0 | 9.0 | 0.00 | 0.01 | 0.00 | 85 | 1005.2 |
| 20260505171008 | 54 | 56 | 3.0 | 10.0 | 0.00 | 0.01 | 0.00 | 85 | 1005.1 |
| 20260505170541 | 54 | 96 | 1.0 | 10.0 | 0.00 | 0.01 | 0.00 | 85 | 1005.0 |
| 20260505170020 | 54 | 52 | 3.0 | 8.0 | 0.00 | 0.01 | 0.00 | 85 | 1005.0 |
| 20260505165551 | 54 | 19 | 3.0 | 8.0 | 0.00 | 0.01 | 0.00 | 85 | 1005.0 |
| 20260505165029 | 54 | 22 | 3.0 | 8.0 | 0.00 | 0.01 | 0.00 | 85 | 1004.9 |
| 20260505164512 | 54 | 34 | 3.0 | 8.0 | 0.00 | 0.01 | 0.00 | 86 | 1004.8 |
| 20260505164049 | 54 | 320 | 3.0 | 11.0 | 0.00 | 0.01 | 0.00 | 86 | 1004.8 |
| 20260505163524 | 54 | 344 | 4.0 | 11.0 | 0.00 | 0.01 | 0.00 | 86 | 1004.9 |
| 20260505163054 | 54 | 346 | 3.0 | 12.0 | 0.00 | 0.01 | 0.00 | 86 | 1004.9 |
| 20260505162527 | 54 | 16 | 4.0 | 13.0 | 0.00 | 0.01 | 0.00 | 85 | 1004.8 |
| 20260505162059 | 55 | 12 | 6.0 | 13.0 | 0.00 | 0.01 | 0.00 | 85 | 1004.6 |
| 20260505162007 | 55 | 326 | 6.0 | 13.0 | 0.00 | 0.01 | 0.00 | 86 | 1004.5 |
| 20260505161547 | 55 | 21 | 4.0 | 18.0 | 0.00 | 0.01 | 0.00 | 86 | 1004.5 |
| 20260505161014 | 55 | 62 | 7.0 | 18.0 | 0.00 | 0.01 | 0.00 | 86 | 1004.5 |
| 20260505160533 | 56 | 350 | 3.0 | 8.0 | 0.00 | 0.01 | 0.00 | 86 | 1004.4 |
| 20260505153031 | 58 | 350 | 3.0 | 9.0 | 0.00 | 0.01 | 0.00 | 86 | 1004.0 |
| 20260505152600 | 58 | 350 | 3.0 | 9.0 | 0.00 | 0.01 | 0.00 | 86 | 1004.0 |
| 20260505152501 | 58 | 350 | 3.0 | 9.0 | 0.00 | 0.01 | 0.00 | 86 | 1003.9 |
| 20260505152035 | 58 | 19 | 1.0 | 9.0 | 0.00 | 0.01 | 0.00 | 86 | 1003.9 |
| 20260505151511 | 59 | 350 | 3.0 | 9.0 | 0.00 | 0.01 | 0.00 | 85 | 1003.7 |
| 20260505151044 | 59 | 350 | 3.0 | 8.0 | 0.00 | 0.01 | 0.00 | 85 | 1003.7 |
| 20260505150519 | 60 | 355 | 3.0 | 9.0 | 0.00 | 0.01 | 0.00 | 85 | 1003.6 |
| 20260505140543 | 64 | 81 | 2.0 | 8.0 | 0.00 | 0.01 | 0.00 | 85 | 1002.4 |
| 20260505125023 | 65 | 54 | 2.0 | 7.0 | 0.00 | 0.01 | 0.00 | 82 | 1002.6 |
| 20260505124549 | 65 | 77 | 1.0 | 6.0 | 0.00 | 0.01 | 0.00 | 83 | 1002.6 |
| 20260505124021 | 64 | 62 | 1.0 | 6.0 | 0.00 | 0.01 | 0.00 | 82 | 1002.8 |
| 20260505123555 | 64 | 65 | 1.0 | 4.0 | 0.00 | 0.01 | 0.00 | 82 | 1002.6 |
| 20260505123038 | 64 | 44 | 1.0 | 4.0 | 0.00 | 0.01 | 0.00 | 82 | 1002.7 |
| 20260505122513 | 64 | 46 | 1.0 | 6.0 | 0.00 | 0.01 | 0.00 | 83 | 1002.6 |
| 20260505122048 | 64 | 50 | 2.0 | 7.0 | 0.00 | 0.01 | 0.00 | 82 | 1002.2 |
| 20260505121528 | 64 | 137 | 2.0 | 7.0 | 0.00 | 0.01 | 0.00 | 82 | 1001.9 |
| 20260505121005 | 64 | 139 | 3.0 | 8.0 | 0.00 | 0.01 | 0.00 | 83 | 1001.8 |
| 20260505120540 | 64 | 136 | 3.0 | 8.0 | 0.00 | 0.01 | 0.00 | 82 | 1001.7 |
| 20260505120017 | 64 | 138 | 1.0 | 9.0 | 0.00 | 0.01 | 0.00 | 82 | 1001.7 |
| 20260505115553 | 64 | 146 | 4.0 | 9.0 | 0.00 | 0.01 | 0.00 | 83 | 1001.7 |
| 20260505115036 | 64 | 110 | 1.0 | 6.0 | 0.00 | 0.01 | 0.00 | 83 | 1001.7 |
| 20260505114553 | 64 | 141 | 2.0 | 7.0 | 0.00 | 0.01 | 0.00 | 83 | 1001.8 |
| 20260505114035 | 64 | 129 | 2.0 | 6.0 | 0.00 | 0.01 | 0.00 | 83 | 1001.7 |
| 20260505113554 | 64 | 152 | 1.0 | 6.0 | 0.00 | 0.01 | 0.00 | 83 | 1001.8 |
| 20260505113025 | 64 | 130 | 0.0 | 7.0 | 0.00 | 0.01 | 0.00 | 83 | 1001.9 |
| 20260505112557 | 64 | 112 | 1.0 | 7.0 | 0.00 | 0.01 | 0.00 | 83 | 1001.9 |
| 20260505112039 | 64 | 81 | 1.0 | 8.0 | 0.00 | 0.01 | 0.00 | 83 | 1001.9 |
| 20260505111555 | 64 | 71 | 2.0 | 8.0 | 0.00 | 0.01 | 0.00 | 83 | 1001.9 |
| 20260505111015 | 64 | 116 | 1.0 | 6.0 | 0.00 | 0.01 | 0.00 | 83 | 1001.9 |
| 20260505110552 | 64 | 62 | 1.0 | 8.0 | 0.00 | 0.01 | 0.00 | 83 | 1001.9 |
| 20260505102024 | 64 | 59 | 2.0 | 10.0 | 0.00 | 0.01 | 0.00 | 86 | 1001.5 |
| 20260505101506 | 63 | 46 | 3.0 | 11.0 | 0.00 | 0.01 | 0.00 | 86 | 1001.5 |
| 20260505101027 | 63 | 34 | 3.0 | 9.0 | 0.00 | 0.01 | 0.00 | 86 | 1001.4 |
| 20260505100503 | 63 | 79 | 4.0 | 9.0 | 0.00 | 0.01 | 0.00 | 87 | 1001.3 |
| 20260505100023 | 63 | 83 | 2.0 | 9.0 | 0.00 | 0.01 | 0.00 | 87 | 1001.4 |
| 20260505095545 | 63 | 60 | 4.0 | 9.0 | 0.00 | 0.01 | 0.00 | 87 | 1001.4 |
| 20260505095023 | 63 | 51 | 3.0 | 9.0 | 0.00 | 0.01 | 0.00 | 87 | 1001.6 |
| 20260505094543 | 63 | 51 | 4.0 | 9.0 | 0.00 | 0.01 | 0.00 | 87 | 1001.5 |
| 20260505094011 | 63 | 48 | 4.0 | 9.0 | 0.00 | 0.01 | 0.00 | 87 | 1001.5 |
| 20260505093547 | 63 | 81 | 3.0 | 9.0 | 0.00 | 0.01 | 0.00 | 87 | 1001.4 |
| 20260505093007 | 63 | 41 | 3.0 | 7.0 | 0.00 | 0.01 | 0.00 | 87 | 1001.4 |
| 20260505092529 | 63 | 58 | 3.0 | 8.0 | 0.00 | 0.01 | 0.00 | 87 | 1001.5 |
| 20260505092009 | 63 | 50 | 2.0 | 7.0 | 0.00 | 0.01 | 0.00 | 87 | 1001.5 |
| 20260505091535 | 63 | 114 | 2.0 | 6.0 | 0.00 | 0.01 | 0.00 | 87 | 1001.4 |
| 20260505091017 | 63 | 56 | 1.0 | 8.0 | 0.00 | 0.01 | 0.00 | 87 | 1001.4 |
| 20260505090534 | 63 | 89 | 1.0 | 8.0 | 0.00 | 0.01 | 0.00 | 87 | 1001.5 |
| 20260505090057 | 63 | 75 | 0.0 | 9.0 | 0.00 | 0.01 | 0.00 | 87 | 1001.4 |
| 20260505085539 | 62 | 58 | 3.0 | 12.0 | 0.00 | 0.01 | 0.00 | 87 | 1001.3 |
| 20260505085057 | 62 | 45 | 2.0 | 12.0 | 0.00 | 0.01 | 0.00 | 86 | 1001.4 |
| 20260505084544 | 62 | 63 | 2.0 | 7.0 | 0.00 | 0.01 | 0.00 | 86 | 1001.4 |
| 20260505084057 | 62 | 46 | 1.0 | 5.0 | 0.00 | 0.01 | 0.00 | 85 | 1001.4 |
| 20260505083536 | 62 | 116 | 1.0 | 7.0 | 0.00 | 0.01 | 0.00 | 85 | 1001.4 |
| 20260505083054 | 63 | 6 | 1.0 | 8.0 | 0.00 | 0.01 | 0.00 | 85 | 1001.4 |
| 20260505082516 | 63 | 69 | 2.0 | 11.0 | 0.00 | 0.01 | 0.00 | 84 | 1001.4 |
| 20260505082053 | 63 | 71 | 4.0 | 11.0 | 0.00 | 0.01 | 0.00 | 84 | 1001.4 |
| 20260505081519 | 63 | 17 | 3.0 | 7.0 | 0.00 | 0.01 | 0.00 | 84 | 1001.5 |
| 20260505081053 | 63 | 66 | 4.0 | 6.0 | 0.00 | 0.01 | 0.00 | 84 | 1001.6 |
| 20260505080518 | 63 | 66 | 4.0 | 7.0 | 0.00 | 0.01 | 0.00 | 84 | 1001.5 |
| 20260505080106 | 63 | 58 | 2.0 | 10.0 | 0.00 | 0.01 | 0.00 | 84 | 1001.4 |
| 20260505075516 | 63 | 43 | 4.0 | 10.0 | 0.00 | 0.01 | 0.00 | 84 | 1001.4 |
| 20260505075050 | 63 | 65 | 3.0 | 9.0 | 0.00 | 0.01 | 0.00 | 84 | 1001.5 |
| 20260505074515 | 63 | 103 | 4.0 | 10.0 | 0.00 | 0.01 | 0.00 | 84 | 1001.6 |
| 20260505074036 | 64 | 50 | 4.0 | 10.0 | 0.00 | 0.01 | 0.00 | 83 | 1001.7 |
| 20260505073512 | 64 | 37 | 3.0 | 10.0 | 0.00 | 0.01 | 0.00 | 82 | 1001.7 |
| 20260505073037 | 64 | 58 | 5.0 | 10.0 | 0.00 | 0.01 | 0.00 | 81 | 1001.8 |
| 20260505072511 | 64 | 69 | 4.0 | 10.0 | 0.00 | 0.01 | 0.00 | 80 | 1002.0 |
| 20260505072031 | 64 | 39 | 4.0 | 10.0 | 0.00 | 0.01 | 0.00 | 79 | 1002.1 |
| 20260505071519 | 65 | 355 | 3.0 | 10.0 | 0.00 | 0.01 | 0.00 | 78 | 1002.3 |
| 20260505071049 | 65 | 35 | 2.0 | 8.0 | 0.00 | 0.01 | 0.00 | 77 | 1002.4 |
| 20260505070504 | 66 | 31 | 2.0 | 10.0 | 0.00 | 0.01 | 0.00 | 78 | 1002.5 |
| 20260505070038 | 66 | 66 | 3.0 | 10.0 | 0.00 | 0.01 | 0.00 | 78 | 1002.7 |
| 20260505065514 | 66 | 69 | 2.0 | 6.0 | 0.00 | 0.01 | 0.00 | 80 | 1002.7 |
| 20260505065032 | 66 | 53 | 1.0 | 5.0 | 0.00 | 0.01 | 0.00 | 80 | 1002.8 |
| 20260505064600 | 67 | 38 | 1.0 | 6.0 | 0.00 | 0.01 | 0.00 | 79 | 1002.9 |
| 20260505064032 | 67 | 40 | 2.0 | 6.0 | 0.00 | 0.01 | 0.00 | 79 | 1002.9 |
| 20260505063511 | 67 | 350 | 0.0 | 4.0 | 0.00 | 0.01 | 0.00 | 79 | 1002.8 |
| 20260505063033 | 67 | 350 | 1.0 | 5.0 | 0.00 | 0.01 | 0.00 | 78 | 1002.9 |
| 20260505062547 | 67 | 350 | 1.0 | 5.0 | 0.00 | 0.01 | 0.00 | 78 | 1003.0 |
| 20260505062034 | 67 | 345 | 2.0 | 5.0 | 0.00 | 0.01 | 0.00 | 78 | 1003.1 |
| 20260505061552 | 66 | 345 | 2.0 | 8.0 | 0.00 | 0.01 | 0.00 | 78 | 1003.2 |
| 20260505061034 | 66 | 343 | 3.0 | 11.0 | 0.00 | 0.01 | 0.00 | 78 | 1003.2 |
| 20260505060546 | 67 | 339 | 4.0 | 11.0 | 0.00 | 0.01 | 0.00 | 78 | 1003.2 |
| 20260505060033 | 67 | 360 | 4.0 | 6.0 | 0.00 | 0.01 | 0.00 | 77 | 1003.1 |
| 20260505055544 | 67 | 326 | 3.0 | 6.0 | 0.00 | 0.01 | 0.00 | 77 | 1003.0 |
| 20260505055022 | 67 | 116 | 0.0 | 1.0 | 0.00 | 0.01 | 0.00 | 77 | 1002.8 |
| 20260505054543 | 67 | 116 | 0.0 | 4.0 | 0.00 | 0.01 | 0.00 | 77 | 1002.5 |
| 20260505054019 | 67 | 116 | 0.0 | 4.0 | 0.00 | 0.01 | 0.00 | 76 | 1002.0 |
| 20260505053537 | 67 | 117 | 1.0 | 5.0 | 0.00 | 0.01 | 0.00 | 76 | 1001.7 |
| 20260505053112 | 67 | 118 | 1.0 | 5.0 | 0.00 | 0.01 | 0.00 | 76 | 1001.8 |
| 20260505052535 | 67 | 111 | 1.0 | 5.0 | 0.00 | 0.01 | 0.00 | 76 | 1001.8 |
| 20260505052052 | 67 | 112 | 1.0 | 3.0 | 0.00 | 0.01 | 0.00 | 76 | 1001.8 |
| 20260505051527 | 66 | 133 | 1.0 | 6.0 | 0.00 | 0.01 | 0.00 | 76 | 1001.8 |
| 20260505051046 | 66 | 135 | 3.0 | 6.0 | 0.01 | 0.01 | 0.00 | 76 | 1001.5 |
| 20260505050528 | 66 | 123 | 1.0 | 6.0 | 0.01 | 0.01 | 0.00 | 76 | 1001.5 |
| 20260505050110 | 66 | 119 | 1.0 | 6.0 | 0.01 | 0.01 | 0.00 | 76 | 1001.4 |
| 20260505041513 | 68 | 125 | 2.0 | 5.0 | 0.01 | 0.01 | 0.01 | 73 | 1001.7 |
| 20260505041051 | 68 | 120 | 1.0 | 5.0 | 0.00 | 0.00 | 0.00 | 72 | 1002.0 |
| 20260505040513 | 69 | 122 | 0.0 | 4.0 | 0.00 | 0.00 | 0.00 | 70 | 1002.0 |
| 20260505040037 | 69 | 123 | 0.0 | 6.0 | 0.00 | 0.00 | 0.00 | 70 | 1001.7 |
| 20260505035508 | 69 | 127 | 2.0 | 8.0 | 0.00 | 0.00 | 0.00 | 67 | 1001.5 |
| 20260505035033 | 69 | 158 | 4.0 | 8.0 | 0.00 | 0.00 | 0.00 | 67 | 1001.4 |
| 20260505034509 | 69 | 149 | 3.0 | 8.0 | 0.00 | 0.00 | 0.00 | 67 | 1001.9 |
| 20260505034032 | 69 | 137 | 4.0 | 8.0 | 0.00 | 0.00 | 0.00 | 66 | 1001.9 |
| 20260505033549 | 70 | 148 | 4.0 | 8.0 | 0.00 | 0.00 | 0.00 | 66 | 1001.8 |
| 20260505033032 | 70 | 138 | 4.0 | 8.0 | 0.00 | 0.00 | 0.00 | 66 | 1001.8 |
| 20260505032545 | 70 | 123 | 2.0 | 7.0 | 0.00 | 0.00 | 0.00 | 66 | 1001.9 |
| 20260505032020 | 70 | 143 | 2.0 | 7.0 | 0.00 | 0.00 | 0.00 | 65 | 1002.0 |
| 20260505031544 | 70 | 135 | 2.0 | 7.0 | 0.00 | 0.00 | 0.00 | 65 | 1002.2 |
| 20260505031003 | 70 | 129 | 2.0 | 5.0 | 0.00 | 0.00 | 0.00 | 65 | 1002.5 |
| 20260505030543 | 70 | 139 | 1.0 | 5.0 | 0.00 | 0.00 | 0.00 | 64 | 1002.7 |
| 20260505030003 | 71 | 124 | 1.0 | 6.0 | 0.00 | 0.00 | 0.00 | 64 | 1002.7 |
| 20260505025542 | 71 | 135 | 2.0 | 6.0 | 0.00 | 0.00 | 0.00 | 64 | 1002.7 |
| 20260505025058 | 71 | 144 | 2.0 | 7.0 | 0.00 | 0.00 | 0.00 | 63 | 1002.9 |
| 20260505024536 | 71 | 139 | 2.0 | 7.0 | 0.00 | 0.00 | 0.00 | 63 | 1002.9 |